This demonstration page uses our WeatherBlox Daily Observations layout. Learn more.

Left ArrowRight Arrow

36.19886, -115.1175

Hourly Observations for December 19, 2021

Temp ( °F °C ) Dew Point ( °F °C ) Humidity (%) Winds ( mph kmh ) Pressure ( in mb ) Visibility ( mi km ) Precip ( " mm )
12:53 am 00:53 Clear 37 2.8 19 -7.2 48 48 WNW 6 9 30.27 1025 10 16 0.00 0.00
1:53 am 01:53 Clear 35 1.7 20 -6.7 54 54 WNW 3 6 30.27 1025 10 16 0.00 0.00
2:53 am 02:53 Clear 34 1.1 19 -7.2 54 54 WNW 6 9 30.26 1025 10 16 0.00 0.00
3:53 am 03:53 Clear 34 1.1 19 -7.2 54 54 WNW 6 9 30.26 1025 10 16 0.00 0.00
4:53 am 04:53 Clear 33 0.6 19 -7.2 56 56 NW 6 9 30.26 1025 10 16 0.00 0.00
5:53 am 05:53 Clear 34 1.1 19 -7.2 54 54 WNW 5 7 30.28 1025 10 16 0.00 0.00
6:53 am 06:53 Sunny 33 0.6 19 -7.2 56 56 WNW 5 7 30.30 1026 10 16 0.00 0.00
7:53 am 07:53 Sunny 36 2.2 19 -7.2 50 50 Calm 30.31 1026 10 16 0.00 0.00
8:53 am 08:53 Sunny 41 5 19 -7.2 41 41 Calm 30.32 1027 10 16 0.00 0.00
9:53 am 09:53 Sunny 45 7.2 20 -6.7 37 37 Calm 30.32 1027 10 16 0.00 0.00
10:53 am 10:53 Sunny 47 8.3 20 -6.7 34 34 ESE 5 7 30.30 1026 10 16 0.00 0.00
11:53 am 11:53 Sunny 50 10 18 -7.8 28 28 VRB 3 6 30.27 1025 10 16 0.00 0.00
12:53 pm 12:53 Sunny 52 11.1 18 -7.8 26 26 ENE 5 7 30.24 1024 10 16 0.00 0.00
1:53 pm 13:53 Sunny 53 11.7 18 -7.8 25 25 SE 6 9 30.23 1024 10 16 0.00 0.00
2:53 pm 14:53 Sunny 54 12.2 18 -7.8 24 24 SSE 5 7 30.22 1023 10 16 0.00 0.00
3:53 pm 15:53 Sunny 53 11.7 18 -7.8 25 25 SSE 3 6 30.22 1023 10 16 0.00 0.00
4:53 pm 16:53 Clear 51 10.6 18 -7.8 27 27 Calm 30.22 1024 10 16 0.00 0.00
5:53 pm 17:53 Clear 49 9.4 18 -7.8 29 29 Calm 30.23 1024 10 16 0.00 0.00
6:53 pm 18:53 Clear 44 6.7 22 -5.6 41 41 WNW 6 9 30.25 1024 10 16 0.00 0.00
7:53 pm 19:53 Clear 43 6.1 22 -5.6 43 43 NW 6 9 30.26 1025 10 16 0.00 0.00
8:53 pm 20:53 Clear 40 4.4 22 -5.6 49 49 NW 5 7 30.26 1025 10 16 0.00 0.00
9:53 pm 21:53 Clear 39 3.9 21 -6.1 48 48 NW 6 9 30.27 1025 10 16 0.00 0.00
10:53 pm 22:53 Clear 37 2.8 22 -5.6 54 54 NW 5 7 30.27 1025 10 16 0.00 0.00
11:53 pm 23:53 Clear 37 2.8 21 -6.1 52 52 NNW 7 11 30.26 1025 10 16 0.00 0.00

Powered by AerisWeather